Orbital Elements at Epoch 2459200.5 (2020-Dec-17.0) TDB
Reference: JPL 27 (heliocentric ecliptic J2000)
Element | Value | Uncertainty (1-sigma) | Units |
e | .05940447833449341 | 3.28e-08 | |
a | 3.010962107533239 | 1.8999e-08 | au |
q | 2.8320974742503 | 9.9296e-08 | au |
i | 9.666156836774251 | 4.5061e-06 | deg |
node | 176.2872351150085 | 2.0961e-05 | deg |
peri | 96.54164317384756 | 5.0647e-05 | deg |
M | 66.66965708270602 | 4.3267e-05 | deg |
tp | 2458847.087356559345 (2019-Dec-29.58735656) | 0.00023026 | TDB |
period | 1908.342673501446 5.22 | 1.8063e-05 4.945e-08 | d yr |
n | .188645364901613 | 1.7855e-09 | deg/d |
Q | 3.189826740816178 | 2.0128e-08 | au |
|
| | Orbit Determination Parameters
Additional Information
|